Regional Weather Roundup
Issued by NWS Goodland, KS

Home | Current Version | Previous Version | Text Only | Print | Product List | Glossary On
Versions: 1 2 3 4 5 6 7 8 9 10 11 12 13 14 15 16 17 18 19 20 21 22 23 24 25 26 27 28 29 30 31 32 33 34 35 36 37 38 39 40 41 42 43 44 45 46 47 48 49 50
000
ASUS43 KGLD 201508
RWRGLD

GOODLAND FORECAST AREA HOURLY WEATHER ROUNDUP
NATIONAL WEATHER SERVICE GOODLAND KS
900 AM MDT THU JUL 20 2017

...OFFICIAL OBSERVATIONS...

CITY           SKY/WX    TMP DP  RH WIND       PRES   REMARKS
GOODLAND KS    SUNNY     79  63  57 NW5       30.07R
HILL CITY KS   SUNNY     88  64  44 SW9       30.01R
IMPERIAL NEB   MOSUNNY   81  59  47 E13       30.05R
MCCOOK NEB     MOSUNNY   83  61  47 SE9       30.00F
AKRON CO       SUNNY     77  58  51 NE7       30.17F
BURLINGTON CO  SUNNY     77  65  66 NW14      30.11S
LIMON CO       SUNNY     73  61  65 NW14      30.23S
$$

...UNOFFICIAL OBSERVATIONS...

CITY           SKY/WX    TMP DP  RH WIND       PRES   REMARKS
LENORA KS        N/A     82  32  16 MISG        N/A
NORTON KS      SUNNY     82  55  39 S8        30.01F
SHARON SPRINGS   N/A     80  63  55 SW6         N/A
TRENTON NEB      N/A     82  32  16 CALM        N/A
KIT CARSON CO    N/A     78  63  60 MISG        N/A
YUMA CO        FAIR      73  55  53 NE8       30.12F
$$




USA.gov is the U.S. government's official web portal to all federal, state and local government web resources and services.